Amsterdam, Netherlands

3:08 AM CEST on October 17, 2019 (GMT +0200)
Schiphol

Weather History for EHAM - August, 2019

Change the Weather History Date:

Thursday, August 15, 2019

  Actual Average Record
Temperature  
Mean Temperature 64 °F -  
Max Temperature 69 °F 66 °F 89 °F (2001)
Min Temperature 59 °F 53 °F 50 °F (2016)
Degree Days  
Heating Degree Days 1    
Growing Degree Days 14 (Base 50)    
Moisture  
Dew Point 58 °F    
Average Humidity 81    
Maximum Humidity 100    
Minimum Humidity 60    
Precipitation  
Precipitation 0.08 in - - ()
Sea Level Pressure  
Sea Level Pressure 29.79 in    
Wind  
Wind Speed 15 mph ()    
Max Wind Speed 25 mph    
Max Gust Speed -    
Visibility 6.7 miles    
Events Rain    
Averages and records for this station are not official NWS values.
T = Trace of Precipitation, MM = Missing Value Source: Averaged Metar Reports

Daily Weather History Graph

Daily Weather History Graph

Search for Another Location

Airport or City:

Astronomy

Aug. 15, 2019 Rise Set
Actual Time 6:23 AM CEST 9:06 PM CEST
Civil Twilight 5:44 AM CEST 9:44 PM CEST
Nautical Twilight 4:55 AM CEST 10:34 PM CEST
Astronomical Twilight 3:53 AM CEST 11:34 PM CEST
Moon 9:30 PM CEST (8/15) 5:53 AM CEST (8/15)
Length of Visible Light 15h 59m
Length of Day
14h 42m
Full, 100% of the Moon is Illuminated
Aug 15
Full
Aug 15
Full
Aug 23
Last Quarter
Aug 30
New
Sep 6
First Quarter

Hourly Weather History & Observations

Time (CEST) Temp. Dew Point Humidity Pressure Visibility Wind Dir Wind Speed Gust Speed Precip Events Conditions
12:00 AM 60 °F 58 °F 91% 29.83 in 4 mi SSE 13.4 mph - - Rain Light Rain
12:25 AM 60.8 °F 59.0 °F 94% 29.83 in 5.0 mi SSE 15.0 mph - N/A Rain Light Rain
12:55 AM 60.8 °F 59.0 °F 94% 29.80 in 6.2 mi SSE 13.8 mph - N/A   Light Drizzle
1:00 AM 60 °F 58 °F 92% 29.81 in 11 mi SSE 15.7 mph - - Rain Light Rain
1:25 AM 60.8 °F 59.0 °F 94% 29.80 in 6.2 mi SSE 15.0 mph - N/A   Light Drizzle
1:55 AM 60.8 °F 59.0 °F 94% 29.77 in 3.7 mi South 13.8 mph - N/A Rain Light Rain
2:00 AM 60 °F 59 °F 95% 29.79 in 4 mi South 13.4 mph - - Rain Light Rain Showers
2:25 AM 60.8 °F 59.0 °F 94% 29.77 in 3.7 mi South 13.8 mph - N/A Rain Light Rain
2:55 AM 60.8 °F 59.0 °F 94% 29.74 in 3.7 mi South 15.0 mph - N/A   Light Drizzle
3:00 AM 61 °F 60 °F 94% 29.76 in 3 mi South 15.7 mph - - Rain Rain
3:25 AM 60.8 °F 60.8 °F 100% 29.74 in 5.6 mi South 13.8 mph - N/A   Mostly Cloudy
3:55 AM 60.8 °F 60.8 °F 100% 29.74 in 5.0 mi SSW 13.8 mph - N/A   Light Drizzle
4:25 AM 62.6 °F 60.8 °F 94% 29.71 in 6.2 mi South 12.7 mph - N/A   Overcast
4:55 AM 62.6 °F 60.8 °F 94% 29.71 in 6.2 mi SSW 13.8 mph - N/A Rain Light Rain
5:00 AM 62 °F 60 °F 92% 29.72 in 6 mi SSW 13.4 mph - -   Partly Cloudy
5:25 AM 62.6 °F 60.8 °F 94% 29.71 in 6.2 mi South 15.0 mph - N/A Rain Light Rain
5:55 AM 62.6 °F 60.8 °F 94% 29.68 in 6.2 mi South 12.7 mph - N/A Rain Light Rain
6:00 AM 62 °F 60 °F 92% 29.70 in 7 mi SSW 15.7 mph - - Rain Rain
6:25 AM 62.6 °F 60.8 °F 94% 29.68 in 3.7 mi SSW 15.0 mph - N/A Rain Light Rain Showers
6:55 AM 62.6 °F 60.8 °F 94% 29.71 in 6.2 mi SSW 16.1 mph - N/A Rain Light Rain Showers
7:00 AM 62 °F 61 °F 94% 29.71 in 5 mi SSW 15.7 mph - - Rain Heavy Rain
7:25 AM 62.6 °F 60.8 °F 94% 29.71 in 5.0 mi SSW 13.8 mph - N/A   Mostly Cloudy
7:55 AM 62.6 °F 60.8 °F 94% 29.71 in 5.0 mi SSW 13.8 mph - N/A Rain Light Rain Showers
8:00 AM 63 °F 61 °F 92% 29.71 in 7 mi SSW 15.7 mph - - Rain Light Rain Showers
8:25 AM 62.6 °F 62.6 °F 100% 29.71 in 3.7 mi SSW 12.7 mph - N/A Rain Rain Showers
8:55 AM 64.4 °F 62.6 °F 94% 29.71 in 3.7 mi SW 11.5 mph - N/A Rain Rain Showers
9:25 AM 66.2 °F 62.6 °F 88% 29.71 in 6.2 mi WSW 13.8 mph - N/A   Mostly Cloudy
9:55 AM 66.2 °F 60.8 °F 83% 29.71 in 6.2 mi West 19.6 mph - N/A Rain Light Rain Showers
10:00 AM 66 °F 60 °F 77% 29.73 in 14 mi West 17.9 mph - - Rain Rain
10:25 AM 66.2 °F 60.8 °F 83% 29.71 in 6.2 mi West 18.4 mph - N/A   Scattered Clouds
10:55 AM 66.2 °F 59.0 °F 78% 29.74 in 6.2 mi West 18.4 mph - N/A   Mostly Cloudy
11:25 AM 66.2 °F 59.0 °F 78% 29.74 in 6.2 mi West 20.7 mph - N/A   Mostly Cloudy
11:55 AM 68.0 °F 59.0 °F 73% 29.74 in 6.2 mi West 20.7 mph - N/A Rain Light Rain Showers
12:25 PM 68.0 °F 57.2 °F 68% 29.74 in 6.2 mi West 23.0 mph - N/A   Scattered Clouds
12:55 PM 68.0 °F 59.0 °F 73% 29.77 in 6.2 mi West 19.6 mph - N/A Rain Light Rain Showers
1:00 PM 68 °F 57 °F 60% 29.78 in 19 mi West 22.4 mph - -   Partly Cloudy
1:25 PM 66.2 °F 59.0 °F 78% 29.77 in 6.2 mi West 21.9 mph - N/A   Scattered Clouds
1:55 PM 68.0 °F 59.0 °F 73% 29.77 in 6.2 mi West 19.6 mph - N/A   Scattered Clouds
2:00 PM 69 °F 59 °F 62% 29.80 in 14 mi WSW 17.9 mph - -   Partly Cloudy
2:25 PM 68.0 °F 57.2 °F 68% 29.80 in 6.2 mi West 23.0 mph - N/A   Scattered Clouds
2:55 PM 66.2 °F 57.2 °F 73% 29.80 in 5.0 mi West 20.7 mph - N/A Rain Light Rain Showers
3:00 PM 64 °F 59 °F 80% 29.82 in 8 mi West 22.4 mph - - Rain Light Rain Showers
3:25 PM 68.0 °F 60.8 °F 78% 29.80 in 6.2 mi West 18.4 mph - N/A   Scattered Clouds
3:55 PM 66.2 °F 57.2 °F 73% 29.80 in 6.2 mi West 25.3 mph - N/A Rain Light Rain Showers
4:25 PM 66.2 °F 57.2 °F 73% 29.83 in 6.2 mi WSW 20.7 mph - N/A   Scattered Clouds
4:55 PM 68.0 °F 57.2 °F 68% 29.83 in 6.2 mi West 19.6 mph - N/A   Scattered Clouds
5:00 PM 67 °F 56 °F 60% 29.85 in 19 mi West 20.1 mph - - Rain Rain
5:25 PM 68.0 °F 57.2 °F 68% 29.83 in 6.2 mi West 21.9 mph - N/A Rain Light Rain Showers
5:55 PM 68.0 °F 57.2 °F 68% 29.86 in 6.2 mi West 24.2 mph - N/A Rain Light Rain Showers
6:25 PM 62.6 °F 55.4 °F 77% 29.86 in 6.2 mi WNW 21.9 mph - N/A Rain Light Rain Showers
6:55 PM 64.4 °F 55.4 °F 73% 29.86 in 6.2 mi WNW 15.0 mph - N/A   Scattered Clouds
7:00 PM 64 °F 54 °F 63% 29.89 in 19 mi WNW 17.9 mph - - Rain Rain
7:25 PM 64.4 °F 55.4 °F 73% 29.89 in 6.2 mi West 15.0 mph - N/A   Scattered Clouds
7:55 PM 64.4 °F 55.4 °F 73% 29.89 in 6.2 mi WNW 13.8 mph - N/A Rain Light Rain Showers
8:00 PM 65 °F 54 °F 60% 29.91 in 22 mi WNW 13.4 mph - -   Partly Cloudy
8:25 PM 64.4 °F 55.4 °F 73% 29.92 in 6.2 mi West 12.7 mph - N/A   Scattered Clouds
8:55 PM 64.4 °F 53.6 °F 68% 29.92 in 6.2 mi WNW 13.8 mph - N/A   Partly Cloudy
9:25 PM 64.4 °F 51.8 °F 64% 29.92 in 6.2 mi WNW 13.8 mph - N/A   Partly Cloudy
9:55 PM 64.4 °F 53.6 °F 68% 29.95 in 6.2 mi WNW 11.5 mph - N/A   Scattered Clouds
10:25 PM 62.6 °F 51.8 °F 68% 29.95 in 6.2 mi WNW 11.5 mph - N/A   Partly Cloudy
10:55 PM 62.6 °F 51.8 °F 68% 29.95 in 6.2 mi WNW 12.7 mph - N/A   Partly Cloudy
11:25 PM 60.8 °F 50.0 °F 68% 29.98 in 6.2 mi West 9.2 mph - N/A   Partly Cloudy
11:55 PM 59.0 °F 51.8 °F 77% 29.98 in 6.2 mi West 9.2 mph - N/A   Partly Cloudy